Home > Weather > Armidale > Past weeks

Flag for Australia Past Weather in Armidale, New South Wales, Australia — Yesterday and Last 2 Weeks

Now
43 °F

Sunny.


Feels Like: 38 °F
Forecast: 29 / 52 °F
Wind: 8 mph from Southeast

Location: Tamworth Airport

Current Time: Jun 29, 2016 at 10:19:27 AM

Latest Report: Jun 29, 2016 at 9:30 AM


Visibility: N/A

Pressure: 30.36 "Hg (26.92 "Hg at 981m altitude)

Humidity: 81%

Dew Point: 37 °F

Location of ArmidaleLocation

Past Weather in Armidale — Graph

°F

Armidale Temperature Yesterday

Maximum temperature yesterday: 54 °F (at 2:00 PM)
Minimum temperature yesterday: 34 °F (at 6:00 AM)
Average temperature yesterday: 44 °F

High & Low Weather Summary for the Past Weeks

 TemperatureHumidityPressure
High68 °F (Jun 17, 12:30 PM)94% (Jun 18, 8:00 AM)30.57 "Hg (Jun 18, 8:00 AM)
Low28 °F (Jun 26, 3:00 AM)35% (Jun 14, 2:00 PM)29.65 "Hg (Jun 20, 2:30 AM)
Average50 °F77%30.05 "Hg
* Reported Jun 14 9:00 AM — Jun 29 9:00 AM, Armidale, Weather by CustomWeather, © 2016

Note: Actual official high and low records may vary slightly from our data, if they occured in-between our weather recording intervals... More about our weather records

Advertising

Armidale Weather History for the Previous 24 Hours

Scroll right to see more
 ConditionsComfort  
Time TempWeatherWind HumidityBarometerVisibility
9:00 AM
Wed, Jun 29
39 °FSunny.9 mph87%30.36 "HgN/A
8:00 AM34 °FSunny.No wind93%30.36 "HgN/A
7:30 AM30 °FSunny.No wind93%30.36 "Hg4 mi
7:00 AM28 °FChilly.No wind93%30.36 "Hg1 mi
6:30 AM28 °FSunny.3 mph93%30.33 "Hg3 mi
6:00 AM28 °FScattered clouds.3 mph93%30.33 "Hg2 mi
5:00 AM28 °FClear.3 mph93%30.33 "Hg6 mi
4:00 AM30 °FPassing clouds.2 mph93%30.33 "Hg1 mi
3:00 AM34 °FClear.1 mph93%30.33 "HgN/A
2:00 AM36 °FClear.5 mph87%30.33 "HgN/A
1:30 AM36 °FClear.No wind87%30.33 "HgN/A
1:00 AM37 °FClear.1 mph87%30.33 "HgN/A
12:00 AM37 °FClear.No wind87%30.33 "HgN/A
11:00 PM
Tue, Jun 28
41 °FOvercast.No wind81%30.36 "HgN/A
10:30 PM41 °FOvercast.1 mph87%30.36 "HgN/A
10:00 PM41 °FOvercast.No wind81%30.36 "HgN/A
9:00 PM39 °FClear.No wind81%30.33 "HgN/A
8:30 PM39 °FClear.6 mph81%30.33 "HgN/A
8:00 PM41 °FClear.3 mph81%30.33 "HgN/A
7:00 PM43 °FPassing clouds.3 mph76%30.30 "HgN/A
6:30 PM48 °FPassing clouds.3 mph66%30.30 "HgN/A
6:00 PM46 °FPassing clouds.6 mph71%30.30 "HgN/A
5:00 PM50 °FOvercast.7 mph62%30.27 "HgN/A
4:00 PM52 °FOvercast.8 mph58%30.24 "HgN/A
3:30 PM52 °FOvercast.7 mph58%30.24 "HgN/A
3:00 PM54 °FOvercast.8 mph54%30.24 "HgN/A
2:30 PM54 °FOvercast.7 mph54%30.24 "HgN/A
2:00 PM54 °FPartly sunny.7 mph58%30.24 "HgN/A
1:30 PM52 °FPartly sunny.6 mph62%30.24 "HgN/A
1:00 PM50 °FScattered clouds.3 mph58%30.24 "HgN/A
12:30 PM50 °FMostly cloudy.2 mph58%30.24 "HgN/A
12:00 PM50 °FPartly sunny.3 mph58%30.24 "HgN/A
11:30 AM48 °FPartly sunny.6 mph62%30.27 "HgN/A
11:00 AM48 °FSunny.5 mph66%30.27 "HgN/A
10:30 AM46 °FSunny.5 mph62%30.27 "HgN/A
10:00 AM46 °FSunny.6 mph71%30.27 "HgN/A
Weather by CustomWeather, © 2016

See weather overviewHow to use our weather pages